STARLINK-4431 (53486 NORAD) Tracking and Keplerian Element Data

This shows tracking and keplerian element data for the satellite.

Feedback or suggestion? Click here.




ElementValue
Catalog53486
NameSTARLINK-4431
Epoch Orbit1550
Epoch Day325.15822838
Epoch Year2022
RAAN84.2141
Inclination97.6598
Eccentricity0.0002323
Argument of Perigee5.4277
Mean Anonmoly354.6972
Mean Motion15.01265006
Decay Rate3.139E-05
L11 53486U 22099X 22325.15822838 .00003139 00000+0 24884-3 0 9993
L22 53486 97.6598 84.2141 0002323 5.4277 354.6972 15.01265006 15500



Live tracking and technical data element details for STARLINK-4431 (NORAD 53486). STARLINK-4431 can be tracked NOW for your location showing map with azimuth and elevation plus other details from your city location.







IsCatalogInMostPopularTable: catalog: 53486, numindb: 8
Update: records affected: 1



GetName: 53486 STARLINK-4431

Hit Count: updated at: Thu, 08 Dec 2022 18:54:50 GMT